User: anonymous   Login
Location: Radford
(37.1320°N, 80.5770°W)
Time: 12:41:32
(UTC-04:00)
Language:

Okean 1-7 - Orbit

View from above orbital plane
View from above orbital plane
View from above satellite
View from above satellite

Ground track
Ground track

The orbit data is extracted from the following two-line orbital elements,

1 23317U 94066A   17202.24094725 +.00000172 +00000-0 +16280-4 0  9997
2 23317 082.5376 086.2945 0018759 315.4798 044.4911 14.87418874231012
Epoch (UTC): 21 July 2017 05:46:57
Eccentricity: 0.0018759
inclination: 82.5376°
perigee height: 593 km
apogee height: 619 km
right ascension of ascending node: 86.2945°
argument of perigee: 315.4798°
revolutions per day: 14.87418874
mean anomaly at epoch: 44.4911°
orbit number at epoch: 23101

The dashed part of the orbit path shows where the satellite is in the earth's shadow,  

DLR